Flag for Germany Weather past 2 weeks in Wolfenbüttel, Lower Saxony, Germany

Now
64 °F

Overcast.


Feels Like: 64 °F
Forecast: 64 / 81 °F
Wind: 7 mph from Northeast

Location: Braunschweig

Current Time: Jul 22, 2014 at 9:54:20 AM

Latest Report: Jul 22, 2014 at 9:20 AM


Visibility: N/A

Pressure: 30.04 "Hg

Humidity: 88%

Dew point: 61 °F

Location of WolfenbüttelLocation

Historic Weather in Wolfenbüttel — Graph

°F

Wolfenbüttel temperature yesterday

Maximum temperature yesterday: 82 °F (at 5:50 PM)
Minimum temperature yesterday: 68 °F (at 6:50 AM)
Average temperature yesterday: 76 °F

Past Weeks' High & Low Weather Summary

 TemperatureHumidityPressure
High93 °F (Jul 20, 1:50 PM)100% (Jul 8, 6:20 AM)30.21 "Hg (Jul 8, 6:20 AM)
Low55 °F (Jul 17, 5:50 AM)24% (Jul 19, 4:50 PM)29.56 "Hg (Jul 9, 9:50 AM)
Average73 °F66%29.94 "Hg
* Reported Jul 7 8:20 AM — Jul 22 8:20 AM, Wolfenbüttel, Weather by CustomWeather, © 2014

Note: Actual official high and low records may vary slightly from our data, if they occured in-between our weather recording intervals... More about our weather records

Advertising

Wolfenbüttel weather history for previous 24 hours

 ConditionsComfort  
Time TempWeatherWind HumidityBarometerVisibility
8:20 AM
Jul 22
64 °FLow clouds.7 mph88%30.04 "HgN/A
7:50 AM64 °FLow clouds.6 mph94%30.04 "HgN/A
7:20 AM63 °FLow clouds.7 mph100%30.01 "HgN/A
6:50 AM63 °FLow clouds.6 mph94%30.01 "HgN/A
9:20 PM
Jul 21
77 °FPassing clouds.9 mph54%29.89 "HgN/A
8:50 PM77 °FPassing clouds.9 mph54%29.89 "HgN/A
8:20 PM79 °FPassing clouds.12 mph51%29.89 "HgN/A
7:50 PM81 °FPassing clouds.8 mph51%29.89 "HgN/A
7:20 PM81 °FPassing clouds.9 mph51%29.86 "HgN/A
6:50 PM81 °FPassing clouds.8 mph51%29.86 "HgN/A
6:20 PM81 °FPassing clouds.8 mph51%29.86 "HgN/A
5:50 PM82 °FPassing clouds.7 mph51%29.86 "HgN/A
5:20 PM81 °FPassing clouds.8 mph51%29.86 "HgN/A
4:50 PM81 °FPassing clouds.8 mph54%29.86 "HgN/A
4:20 PM81 °FPassing clouds.6 mph58%29.86 "HgN/A
3:50 PM79 °FPartly sunny.6 mph61%29.86 "HgN/A
3:20 PM79 °FPartly sunny.6 mph61%29.86 "HgN/A
2:50 PM79 °FBroken clouds.6 mph61%29.86 "HgN/A
2:20 PM77 °FPartly sunny.7 mph65%29.86 "HgN/A
1:50 PM77 °FPartly sunny.6 mph65%29.86 "HgN/A
1:20 PM75 °FBroken clouds.8 mph69%29.86 "HgN/A
12:50 PM75 °FBroken clouds.10 mph69%29.86 "HgN/A
12:20 PM75 °FBroken clouds.8 mph69%29.83 "HgN/A
11:50 AM75 °FPassing clouds.7 mph69%29.83 "HgN/A
11:20 AM73 °FPassing clouds.7 mph74%29.83 "HgN/A
10:50 AM75 °FScattered clouds.8 mph69%29.83 "HgN/A
10:20 AM73 °FPassing clouds.7 mph74%29.83 "HgN/A
9:50 AM73 °FScattered clouds.6 mph69%29.83 "HgN/A
9:20 AM72 °FPassing clouds.5 mph78%29.83 "HgN/A
Weather by CustomWeather, © 2014

See weather overviewHow to use our weather pages